Time,TemperatureF,DewpointF,PressureIn,WindDirection,WindDirectionDegrees,WindSpeedMPH,WindSpeedGustMPH,Humidity,HourlyPrecipIn,Conditions,Clouds,dailyrainin,SoftwareType,DateUTC
2013-05-14 00:01:00,41.7,23.5,30.12,East,90,0.0,0.0,48,0.00,,---,0.00,VWS V13.01,2013-05-14 04:01:00,
2013-05-14 00:07:00,41.5,23.8,30.12,East,90,0.0,0.0,49,0.00,,---,0.00,VWS V13.01,2013-05-14 04:07:00,
2013-05-14 00:12:00,41.2,24.0,30.12,East,90,0.0,0.0,50,0.00,,---,0.00,VWS V13.01,2013-05-14 04:12:00,
2013-05-14 00:17:00,40.6,23.9,30.12,East,90,0.0,0.0,51,0.00,,---,0.00,VWS V13.01,2013-05-14 04:17:00,
2013-05-14 00:22:00,40.5,24.2,30.12,East,90,0.0,0.0,52,0.00,,---,0.00,VWS V13.01,2013-05-14 04:22:00,
2013-05-14 00:27:00,40.1,23.9,30.12,East,90,0.0,0.0,52,0.00,,---,0.00,VWS V13.01,2013-05-14 04:27:00,
2013-05-14 00:32:00,39.7,23.6,30.12,East,90,0.0,0.0,52,0.00,,---,0.00,VWS V13.01,2013-05-14 04:32:00,
2013-05-14 00:37:00,39.4,24.1,30.12,East,90,1.1,1.1,54,0.00,,---,0.00,VWS V13.01,2013-05-14 04:37:00,
2013-05-14 00:42:00,39.0,24.7,30.12,East,90,0.0,0.0,56,0.00,,---,0.00,VWS V13.01,2013-05-14 04:42:00,
2013-05-14 00:47:00,39.0,25.1,30.12,East,90,0.0,0.0,57,0.00,,---,0.00,VWS V13.01,2013-05-14 04:47:00,
2013-05-14 00:52:00,38.8,25.3,30.12,East,90,0.0,0.0,58,0.00,,---,0.00,VWS V13.01,2013-05-14 04:52:00,
2013-05-14 00:58:00,38.7,25.2,30.12,East,90,0.0,0.0,58,0.00,,---,0.00,VWS V13.01,2013-05-14 04:58:00,
2013-05-14 01:03:00,38.5,25.4,30.12,East,90,0.0,0.0,59,0.00,,---,0.00,VWS V13.01,2013-05-14 05:03:00,
2013-05-14 01:08:00,38.1,25.1,30.12,East,90,0.0,0.0,59,0.00,,---,0.00,VWS V13.01,2013-05-14 05:08:00,
2013-05-14 01:13:00,38.1,25.5,30.12,East,90,0.0,0.0,60,0.00,,---,0.00,VWS V13.01,2013-05-14 05:13:00,
2013-05-14 01:18:00,37.9,25.7,30.12,East,90,0.0,0.0,61,0.00,,---,0.00,VWS V13.01,2013-05-14 05:18:00,
2013-05-14 01:23:00,37.8,26.3,30.12,East,90,0.0,0.0,63,0.00,,---,0.00,VWS V13.01,2013-05-14 05:23:00,
2013-05-14 01:28:00,37.6,25.8,30.12,East,90,0.0,0.0,62,0.00,,---,0.00,VWS V13.01,2013-05-14 05:28:00,
2013-05-14 01:33:00,37.4,25.6,30.12,East,90,0.0,0.0,62,0.00,,---,0.00,VWS V13.01,2013-05-14 05:33:00,
2013-05-14 01:38:00,37.0,25.6,30.12,East,90,0.0,0.0,63,0.00,,---,0.00,VWS V13.01,2013-05-14 05:38:00,
2013-05-14 01:43:00,37.0,26.4,30.12,East,90,0.0,0.0,65,0.00,,---,0.00,VWS V13.01,2013-05-14 05:43:00,
2013-05-14 01:48:00,36.9,26.2,30.12,East,90,0.0,0.0,65,0.00,,---,0.00,VWS V13.01,2013-05-14 05:48:00,
2013-05-14 01:54:00,36.9,26.6,30.12,East,90,0.0,0.0,66,0.00,,---,0.00,VWS V13.01,2013-05-14 05:54:00,
2013-05-14 01:59:00,36.7,26.8,30.12,East,90,0.0,0.0,67,0.00,,---,0.00,VWS V13.01,2013-05-14 05:59:00,
2013-05-14 02:04:00,36.5,26.6,30.12,East,90,0.0,0.0,67,0.00,,---,0.00,VWS V13.01,2013-05-14 06:04:00,
2013-05-14 02:09:00,36.3,26.8,30.12,East,90,0.0,0.0,68,0.00,,---,0.00,VWS V13.01,2013-05-14 06:09:00,
2013-05-14 02:14:00,36.1,26.6,30.12,East,90,0.0,0.0,68,0.00,,---,0.00,VWS V13.01,2013-05-14 06:14:00,
2013-05-14 02:19:00,36.0,26.8,30.12,East,90,0.0,0.0,69,0.00,,---,0.00,VWS V13.01,2013-05-14 06:19:00,
2013-05-14 02:24:00,35.8,26.6,30.12,East,90,0.0,0.0,69,0.00,,---,0.00,VWS V13.01,2013-05-14 06:24:00,
2013-05-14 02:29:00,35.8,26.6,30.12,ENE,68,0.0,0.0,69,0.00,,---,0.00,VWS V13.01,2013-05-14 06:29:00,
2013-05-14 02:34:00,35.6,26.5,30.12,ENE,68,0.0,0.0,69,0.00,,---,0.00,VWS V13.01,2013-05-14 06:34:00,
2013-05-14 02:39:00,35.4,27.0,30.12,ENE,68,0.0,0.0,71,0.00,,---,0.00,VWS V13.01,2013-05-14 06:39:00,
2013-05-14 02:44:00,35.4,27.0,30.12,ENE,68,0.0,0.0,71,0.00,,---,0.00,VWS V13.01,2013-05-14 06:44:00,
2013-05-14 02:49:00,35.1,26.6,30.12,ENE,68,0.0,0.0,71,0.00,,---,0.00,VWS V13.01,2013-05-14 06:49:00,
2013-05-14 02:55:00,35.1,27.0,30.12,ENE,68,0.0,0.0,72,0.00,,---,0.00,VWS V13.01,2013-05-14 06:55:00,
2013-05-14 03:00:00,34.9,26.8,30.12,ENE,68,0.0,0.0,72,0.00,,---,0.00,VWS V13.01,2013-05-14 07:00:00,
2013-05-14 03:05:00,34.9,27.1,30.09,ENE,68,0.0,0.0,73,0.00,,---,0.00,VWS V13.01,2013-05-14 07:05:00,
2013-05-14 03:10:00,34.7,27.0,30.09,ENE,68,0.0,0.0,73,0.00,,---,0.00,VWS V13.01,2013-05-14 07:10:00,
2013-05-14 03:15:00,34.7,27.0,30.09,ENE,68,0.0,0.0,73,0.00,,---,0.00,VWS V13.01,2013-05-14 07:15:00,
2013-05-14 03:20:00,34.5,27.1,30.09,ENE,68,0.0,0.0,74,0.00,,---,0.00,VWS V13.01,2013-05-14 07:20:00,
2013-05-14 03:25:00,34.5,27.1,30.09,ENE,68,0.0,0.0,74,0.00,,---,0.00,VWS V13.01,2013-05-14 07:25:00,
2013-05-14 03:30:00,34.3,27.2,30.09,ENE,68,0.0,0.0,75,0.00,,---,0.00,VWS V13.01,2013-05-14 07:30:00,
2013-05-14 03:35:00,34.3,26.9,30.09,ENE,68,0.0,0.0,74,0.00,,---,0.00,VWS V13.01,2013-05-14 07:35:00,
2013-05-14 03:40:00,34.3,27.2,30.09,ENE,68,0.0,0.0,75,0.00,,---,0.00,VWS V13.01,2013-05-14 07:40:00,
2013-05-14 03:45:00,34.3,27.2,30.09,ENE,68,0.0,0.0,75,0.00,,---,0.00,VWS V13.01,2013-05-14 07:45:00,
2013-05-14 03:50:00,34.5,27.4,30.09,ENE,68,0.0,0.0,75,0.00,,---,0.00,VWS V13.01,2013-05-14 07:50:00,
2013-05-14 03:55:00,34.5,27.4,30.09,ENE,68,0.0,0.0,75,0.00,,---,0.00,VWS V13.01,2013-05-14 07:55:00,
2013-05-14 04:00:00,34.7,27.6,30.09,ENE,68,0.0,0.0,75,0.00,,---,0.00,VWS V13.01,2013-05-14 08:00:00,
2013-05-14 04:05:00,34.7,27.9,30.09,ENE,68,0.0,0.0,76,0.00,,---,0.00,VWS V13.01,2013-05-14 08:05:00,
2013-05-14 04:11:00,34.9,28.4,30.09,ENE,68,0.0,0.0,77,0.00,,---,0.00,VWS V13.01,2013-05-14 08:11:00,
2013-05-14 04:16:00,35.1,28.6,30.09,ENE,68,0.0,0.0,77,0.00,,---,0.00,VWS V13.01,2013-05-14 08:16:00,
2013-05-14 04:21:00,35.2,28.8,30.09,ENE,68,0.0,0.0,77,0.00,,---,0.00,VWS V13.01,2013-05-14 08:21:00,
2013-05-14 04:26:00,35.4,28.9,30.09,ENE,68,0.0,0.0,77,0.00,,---,0.00,VWS V13.01,2013-05-14 08:26:00,
2013-05-14 04:31:00,35.4,28.9,30.09,ENE,68,0.0,0.0,77,0.00,,---,0.00,VWS V13.01,2013-05-14 08:31:00,
2013-05-14 04:36:00,35.4,28.9,30.09,ENE,68,0.0,0.0,77,0.00,,---,0.00,VWS V13.01,2013-05-14 08:36:00,
2013-05-14 04:41:00,35.4,28.9,30.09,ENE,68,0.0,0.0,77,0.00,,---,0.00,VWS V13.01,2013-05-14 08:41:00,
2013-05-14 04:46:00,35.4,28.9,30.09,ENE,68,0.0,0.0,77,0.00,,---,0.00,VWS V13.01,2013-05-14 08:46:00,
2013-05-14 04:51:00,35.4,28.9,30.09,East,90,0.0,0.0,77,0.00,,---,0.00,VWS V13.01,2013-05-14 08:51:00,
2013-05-14 04:56:00,35.4,28.9,30.09,ENE,68,0.0,0.0,77,0.00,,---,0.00,VWS V13.01,2013-05-14 08:56:00,
2013-05-14 05:01:00,35.6,29.1,30.09,ENE,68,0.0,0.0,77,0.00,,---,0.00,VWS V13.01,2013-05-14 09:01:00,
2013-05-14 05:06:00,35.6,29.1,30.09,East,90,0.0,0.0,77,0.00,,---,0.00,VWS V13.01,2013-05-14 09:06:00,
2013-05-14 05:11:00,35.8,29.6,30.09,SE,135,0.0,0.0,78,0.00,,---,0.00,VWS V13.01,2013-05-14 09:11:00,
2013-05-14 05:16:00,36.1,30.0,30.09,ESE,112,0.0,0.0,78,0.00,,---,0.00,VWS V13.01,2013-05-14 09:16:00,
2013-05-14 05:21:00,36.3,30.1,30.09,ESE,112,0.0,0.0,78,0.00,,---,0.00,VWS V13.01,2013-05-14 09:21:00,
2013-05-14 05:27:00,36.5,30.3,30.09,NE,45,0.0,0.0,78,0.00,,---,0.00,VWS V13.01,2013-05-14 09:27:00,
2013-05-14 05:32:00,36.5,30.3,30.09,ESE,112,0.0,0.0,78,0.00,,---,0.00,VWS V13.01,2013-05-14 09:32:00,
2013-05-14 05:37:00,36.7,30.5,30.09,ESE,112,0.0,0.0,78,0.00,,---,0.00,VWS V13.01,2013-05-14 09:37:00,
2013-05-14 05:42:00,36.9,30.6,30.09,ESE,112,0.0,0.0,78,0.00,,---,0.00,VWS V13.01,2013-05-14 09:42:00,
2013-05-14 05:47:00,36.9,30.6,30.09,ESE,112,0.0,0.0,78,0.00,,---,0.00,VWS V13.01,2013-05-14 09:47:00,
2013-05-14 05:52:00,37.2,31.0,30.09,South,180,0.0,0.0,78,0.00,,---,0.00,VWS V13.01,2013-05-14 09:52:00,
2013-05-14 05:57:00,37.6,31.4,30.09,SSE,158,0.0,0.0,78,0.00,,---,0.00,VWS V13.01,2013-05-14 09:57:00,
2013-05-14 06:02:00,37.9,31.4,30.12,SSE,158,0.0,0.0,77,0.00,,---,0.00,VWS V13.01,2013-05-14 10:02:00,
2013-05-14 06:07:00,38.3,31.4,30.12,SSE,158,0.0,0.0,76,0.00,,---,0.00,VWS V13.01,2013-05-14 10:07:00,
2013-05-14 06:12:00,38.5,31.6,30.12,SSE,158,0.0,0.0,76,0.00,,---,0.00,VWS V13.01,2013-05-14 10:12:00,
2013-05-14 06:17:00,38.7,31.8,30.09,SE,135,0.0,0.0,76,0.00,,---,0.00,VWS V13.01,2013-05-14 10:17:00,
2013-05-14 06:23:00,38.8,31.6,30.09,SE,135,0.0,0.0,75,0.00,,---,0.00,VWS V13.01,2013-05-14 10:23:00,
2013-05-14 06:28:00,38.8,31.6,30.09,SE,135,0.0,0.0,75,0.00,,---,0.00,VWS V13.01,2013-05-14 10:28:00,
2013-05-14 06:33:00,38.7,31.1,30.09,SE,135,0.0,0.0,74,0.00,,---,0.00,VWS V13.01,2013-05-14 10:33:00,
2013-05-14 06:38:00,38.7,31.1,30.09,SE,135,0.0,0.0,74,0.00,,---,0.00,VWS V13.01,2013-05-14 10:38:00,
2013-05-14 06:43:00,38.5,30.9,30.09,SE,135,0.0,0.0,74,0.00,,---,0.00,VWS V13.01,2013-05-14 10:43:00,
2013-05-14 06:48:00,38.5,30.9,30.12,SE,135,0.0,0.0,74,0.00,,---,0.00,VWS V13.01,2013-05-14 10:48:00,
2013-05-14 06:53:00,38.5,31.3,30.12,SE,135,0.0,0.0,75,0.00,,---,0.00,VWS V13.01,2013-05-14 10:53:00,
2013-05-14 06:58:00,38.8,31.9,30.12,SE,135,0.0,0.0,76,0.00,,---,0.00,VWS V13.01,2013-05-14 10:58:00,
2013-05-14 07:03:00,39.7,32.8,30.12,NE,45,0.0,0.0,76,0.00,,---,0.00,VWS V13.01,2013-05-14 11:03:00,
2013-05-14 07:08:00,40.6,33.0,30.12,NE,45,0.0,0.0,74,0.00,,---,0.00,VWS V13.01,2013-05-14 11:08:00,
2013-05-14 07:13:00,41.2,32.8,30.12,NW,315,0.0,0.0,72,0.00,,---,0.00,VWS V13.01,2013-05-14 11:13:00,
2013-05-14 07:18:00,41.7,32.3,30.12,NE,45,2.2,2.5,69,0.00,,---,0.00,VWS V13.01,2013-05-14 11:18:00,
2013-05-14 07:23:00,42.3,29.0,30.12,NNE,22,2.9,3.6,59,0.00,,---,0.00,VWS V13.01,2013-05-14 11:23:00,
2013-05-14 07:28:00,42.6,28.9,30.12,NNE,22,1.1,2.2,58,0.00,,---,0.00,VWS V13.01,2013-05-14 11:28:00,
2013-05-14 07:33:00,43.9,29.6,30.12,East,90,1.1,2.5,57,0.00,,---,0.00,VWS V13.01,2013-05-14 11:33:00,
2013-05-14 07:38:00,45.1,30.0,30.12,NE,45,2.0,2.5,55,0.00,,---,0.00,VWS V13.01,2013-05-14 11:38:00,
2013-05-14 07:43:00,46.2,29.1,30.12,East,90,3.1,3.6,51,0.00,,---,0.00,VWS V13.01,2013-05-14 11:43:00,
2013-05-14 07:49:00,47.1,29.9,30.12,North,0,3.6,3.6,51,0.00,,---,0.00,VWS V13.01,2013-05-14 11:49:00,
2013-05-14 07:54:00,47.7,29.5,30.12,NNE,22,1.6,2.9,49,0.00,,---,0.00,VWS V13.01,2013-05-14 11:54:00,
2013-05-14 07:59:00,48.6,29.8,30.12,ENE,68,2.2,2.2,48,0.00,,---,0.00,VWS V13.01,2013-05-14 11:59:00,
2013-05-14 08:04:00,50.0,30.0,30.12,East,90,2.2,2.9,46,0.00,,---,0.00,VWS V13.01,2013-05-14 12:04:00,
2013-05-14 08:09:00,50.5,28.3,30.12,North,0,0.0,2.2,42,0.00,,---,0.00,VWS V13.01,2013-05-14 12:09:00,
2013-05-14 08:14:00,50.5,27.1,30.12,NNE,22,4.3,5.6,40,0.00,,---,0.00,VWS V13.01,2013-05-14 12:14:00,
2013-05-14 08:19:00,50.2,27.4,30.12,NNE,22,2.5,2.5,41,0.00,,---,0.00,VWS V13.01,2013-05-14 12:19:00,
2013-05-14 08:24:00,49.8,27.1,30.12,North,0,3.1,3.1,41,0.00,,---,0.00,VWS V13.01,2013-05-14 12:24:00,
2013-05-14 08:29:00,50.5,27.7,30.09,NNE,22,0.0,1.1,41,0.00,,---,0.00,VWS V13.01,2013-05-14 12:29:00,
2013-05-14 08:34:00,50.2,26.8,30.09,North,0,4.0,4.3,40,0.00,,---,0.00,VWS V13.01,2013-05-14 12:34:00,
2013-05-14 08:39:00,50.2,26.8,30.09,NW,315,2.2,3.1,40,0.00,,---,0.00,VWS V13.01,2013-05-14 12:39:00,
2013-05-14 08:44:00,50.9,28.1,30.09,North,0,3.8,3.8,41,0.00,,---,0.00,VWS V13.01,2013-05-14 12:44:00,
2013-05-14 08:49:00,50.5,27.1,30.12,East,90,0.0,2.7,40,0.00,,---,0.00,VWS V13.01,2013-05-14 12:49:00,
2013-05-14 08:55:00,50.0,26.6,30.12,North,0,3.6,3.6,40,0.00,,---,0.00,VWS V13.01,2013-05-14 12:55:00,
2013-05-14 09:00:00,49.6,26.3,30.09,NE,45,2.0,2.9,40,0.00,,---,0.00,VWS V13.01,2013-05-14 13:00:00,
2013-05-14 09:05:00,49.6,26.3,30.09,NNW,338,3.4,3.4,40,0.00,,---,0.00,VWS V13.01,2013-05-14 13:05:00,
2013-05-14 09:10:00,50.0,27.2,30.09,NNE,22,2.9,5.4,41,0.00,,---,0.00,VWS V13.01,2013-05-14 13:10:00,
2013-05-14 09:15:00,50.2,26.8,30.09,NE,45,1.1,2.2,40,0.00,,---,0.00,VWS V13.01,2013-05-14 13:15:00,
2013-05-14 09:20:00,50.2,26.8,30.09,East,90,2.5,2.5,40,0.00,,---,0.00,VWS V13.01,2013-05-14 13:20:00,
2013-05-14 09:25:00,50.4,27.6,30.09,NNW,338,3.6,4.0,41,0.00,,---,0.00,VWS V13.01,2013-05-14 13:25:00,
2013-05-14 09:30:00,50.7,27.9,30.09,SE,135,2.2,2.2,41,0.00,,---,0.00,VWS V13.01,2013-05-14 13:30:00,
2013-05-14 09:35:00,51.6,28.7,30.09,East,90,3.4,3.4,41,0.00,,---,0.00,VWS V13.01,2013-05-14 13:35:00,
2013-05-14 09:40:00,51.6,28.7,30.09,NW,315,3.1,3.1,41,0.00,,---,0.00,VWS V13.01,2013-05-14 13:40:00,
2013-05-14 09:45:00,51.6,28.1,30.09,NE,45,5.8,5.8,40,0.00,,---,0.00,VWS V13.01,2013-05-14 13:45:00,
2013-05-14 09:50:00,51.6,28.1,30.09,North,0,2.9,2.9,40,0.00,,---,0.00,VWS V13.01,2013-05-14 13:50:00,
2013-05-14 09:56:00,51.4,27.9,30.09,NNE,22,4.7,6.3,40,0.00,,---,0.00,VWS V13.01,2013-05-14 13:56:00,
2013-05-14 10:01:00,51.6,28.1,30.09,NE,45,2.9,2.9,40,0.00,,---,0.00,VWS V13.01,2013-05-14 14:01:00,
2013-05-14 10:06:00,52.3,28.8,30.09,East,90,2.0,3.4,40,0.00,,---,0.00,VWS V13.01,2013-05-14 14:06:00,
2013-05-14 10:11:00,53.2,28.9,30.09,NW,315,2.7,4.3,39,0.00,,---,0.00,VWS V13.01,2013-05-14 14:11:00,
2013-05-14 10:16:00,53.4,28.5,30.09,SE,135,0.0,1.1,38,0.00,,---,0.00,VWS V13.01,2013-05-14 14:16:00,
2013-05-14 10:21:00,54.1,28.5,30.09,NNE,22,7.6,7.6,37,0.00,,---,0.00,VWS V13.01,2013-05-14 14:21:00,
2013-05-14 10:26:00,54.0,29.0,30.09,NE,45,3.1,3.1,38,0.00,,---,0.00,VWS V13.01,2013-05-14 14:26:00,
2013-05-14 10:31:00,54.5,28.8,30.09,South,180,0.9,1.1,37,0.00,,---,0.00,VWS V13.01,2013-05-14 14:31:00,
2013-05-14 10:36:00,54.5,28.8,30.09,SW,225,5.4,5.4,37,0.00,,---,0.00,VWS V13.01,2013-05-14 14:36:00,
2013-05-14 10:41:00,54.0,27.6,30.09,NE,45,4.0,4.0,36,0.00,,---,0.00,VWS V13.01,2013-05-14 14:41:00,
2013-05-14 10:46:00,54.5,28.1,30.09,East,90,0.0,0.0,36,0.00,,---,0.00,VWS V13.01,2013-05-14 14:46:00,
2013-05-14 10:52:00,55.0,28.6,30.09,NNW,338,7.8,7.8,36,0.00,,---,0.00,VWS V13.01,2013-05-14 14:52:00,
2013-05-14 10:57:00,53.4,27.1,30.09,SW,225,3.4,3.4,36,0.00,,---,0.00,VWS V13.01,2013-05-14 14:57:00,
2013-05-14 11:02:00,54.3,28.0,30.09,NE,45,0.0,3.6,36,0.00,,---,0.00,VWS V13.01,2013-05-14 15:02:00,
2013-05-14 11:07:00,54.5,28.1,30.09,North,0,0.0,4.0,36,0.00,,---,0.00,VWS V13.01,2013-05-14 15:07:00,
2013-05-14 11:12:00,55.0,28.6,30.09,SE,135,0.0,3.1,36,0.00,,---,0.00,VWS V13.01,2013-05-14 15:12:00,
2013-05-14 11:17:00,55.4,28.2,30.09,SW,225,3.8,4.3,35,0.00,,---,0.00,VWS V13.01,2013-05-14 15:17:00,
2013-05-14 11:22:00,55.6,27.7,30.09,NE,45,6.5,6.5,34,0.00,,---,0.00,VWS V13.01,2013-05-14 15:22:00,
2013-05-14 11:27:00,56.3,27.6,30.09,SE,135,2.2,2.2,33,0.00,,---,0.00,VWS V13.01,2013-05-14 15:27:00,
2013-05-14 11:32:00,56.8,27.3,30.09,SSW,202,2.0,6.0,32,0.00,,---,0.00,VWS V13.01,2013-05-14 15:32:00,
2013-05-14 11:37:00,57.2,26.9,30.09,North,0,1.3,1.3,31,0.00,,---,0.00,VWS V13.01,2013-05-14 15:37:00,
2013-05-14 11:42:00,57.4,27.8,30.09,NNE,22,2.5,2.5,32,0.00,,---,0.00,VWS V13.01,2013-05-14 15:42:00,
2013-05-14 11:47:00,57.2,26.1,30.09,NNE,22,4.3,4.3,30,0.00,,---,0.00,VWS V13.01,2013-05-14 15:47:00,
2013-05-14 11:52:00,56.5,25.4,30.09,ENE,68,0.9,1.6,30,0.00,,---,0.00,VWS V13.01,2013-05-14 15:52:00,
2013-05-14 11:57:00,56.1,25.9,30.09,NE,45,1.1,2.2,31,0.00,,---,0.00,VWS V13.01,2013-05-14 15:57:00,
2013-05-14 12:02:00,55.9,26.5,30.09,NW,315,2.0,3.8,32,0.00,,---,0.00,VWS V13.01,2013-05-14 16:02:00,
2013-05-14 12:07:00,56.1,26.7,30.09,North,0,1.1,3.8,32,0.00,,---,0.00,VWS V13.01,2013-05-14 16:07:00,
2013-05-14 12:12:00,56.3,26.1,30.09,West,270,2.9,5.4,31,0.00,,---,0.00,VWS V13.01,2013-05-14 16:12:00,
2013-05-14 12:17:00,56.7,27.2,30.09,NNE,22,6.0,6.0,32,0.00,,---,0.00,VWS V13.01,2013-05-14 16:17:00,
2013-05-14 12:23:00,57.0,27.5,30.09,North,0,3.8,3.8,32,0.00,,---,0.00,VWS V13.01,2013-05-14 16:23:00,
2013-05-14 12:28:00,57.0,26.7,30.09,NE,45,3.1,3.4,31,0.00,,---,0.00,VWS V13.01,2013-05-14 16:28:00,
2013-05-14 12:33:00,56.1,25.9,30.09,East,90,0.0,2.5,31,0.00,,---,0.00,VWS V13.01,2013-05-14 16:33:00,
2013-05-14 12:38:00,56.3,26.1,30.09,NE,45,0.0,2.7,31,0.00,,---,0.00,VWS V13.01,2013-05-14 16:38:00,
2013-05-14 12:43:00,56.5,26.2,30.09,ENE,68,2.2,3.1,31,0.00,,---,0.00,VWS V13.01,2013-05-14 16:43:00,
2013-05-14 12:48:00,57.9,27.5,30.09,NE,45,3.1,3.1,31,0.00,,---,0.00,VWS V13.01,2013-05-14 16:48:00,
2013-05-14 12:53:00,57.2,25.2,30.09,NE,45,3.4,6.5,29,0.00,,---,0.00,VWS V13.01,2013-05-14 16:53:00,
2013-05-14 12:58:00,59.0,28.4,30.09,NE,45,2.9,3.1,31,0.00,,---,0.00,VWS V13.01,2013-05-14 16:58:00,
2013-05-14 13:03:00,58.8,27.5,30.09,WNW,292,2.9,2.9,30,0.00,,---,0.00,VWS V13.01,2013-05-14 17:03:00,
2013-05-14 13:08:00,58.5,26.3,30.09,NE,45,2.2,3.4,29,0.00,,---,0.00,VWS V13.01,2013-05-14 17:08:00,
2013-05-14 13:13:00,57.9,26.7,30.09,NW,315,5.6,5.6,30,0.00,,---,0.00,VWS V13.01,2013-05-14 17:13:00,
2013-05-14 13:18:00,57.4,25.4,30.09,NE,45,3.8,4.7,29,0.00,,---,0.00,VWS V13.01,2013-05-14 17:18:00,
2013-05-14 13:23:00,57.6,25.6,30.09,East,90,1.6,3.8,29,0.00,,---,0.00,VWS V13.01,2013-05-14 17:23:00,
2013-05-14 13:28:00,57.9,26.7,30.09,SW,225,2.9,2.9,30,0.00,,---,0.00,VWS V13.01,2013-05-14 17:28:00,
2013-05-14 13:33:00,58.1,26.0,30.09,WNW,292,3.1,3.1,29,0.00,,---,0.00,VWS V13.01,2013-05-14 17:33:00,
2013-05-14 13:38:00,58.6,26.5,30.09,North,0,3.1,3.1,29,0.00,,---,0.00,VWS V13.01,2013-05-14 17:38:00,
2013-05-14 13:43:00,58.3,26.2,30.09,ENE,68,1.6,2.2,29,0.00,,---,0.00,VWS V13.01,2013-05-14 17:43:00,
2013-05-14 13:48:00,58.5,26.3,30.09,NE,45,2.0,2.0,29,0.00,,---,0.00,VWS V13.01,2013-05-14 17:48:00,
2013-05-14 13:53:00,58.6,25.6,30.09,NNE,22,2.9,5.6,28,0.00,,---,0.00,VWS V13.01,2013-05-14 17:53:00,
2013-05-14 13:58:00,58.3,25.3,30.09,North,0,4.9,4.9,28,0.00,,---,0.00,VWS V13.01,2013-05-14 17:58:00,
2013-05-14 14:03:00,58.5,25.5,30.09,NE,45,1.1,2.2,28,0.00,,---,0.00,VWS V13.01,2013-05-14 18:03:00,
2013-05-14 14:08:00,58.6,25.6,30.09,North,0,4.9,4.9,28,0.00,,---,0.00,VWS V13.01,2013-05-14 18:08:00,
2013-05-14 14:14:00,58.1,25.2,30.09,North,0,1.3,3.6,28,0.00,,---,0.00,VWS V13.01,2013-05-14 18:14:00,
2013-05-14 14:19:00,57.2,25.2,30.09,NNW,338,2.9,2.9,29,0.00,,---,0.00,VWS V13.01,2013-05-14 18:19:00,
2013-05-14 14:24:00,56.7,24.8,30.09,North,0,0.9,0.9,29,0.00,,---,0.00,VWS V13.01,2013-05-14 18:24:00,
2013-05-14 14:29:00,56.7,24.8,30.09,NE,45,3.4,5.4,29,0.00,,---,0.00,VWS V13.01,2013-05-14 18:29:00,
2013-05-14 14:34:00,56.7,24.8,30.09,NE,45,3.6,3.6,29,0.00,,---,0.00,VWS V13.01,2013-05-14 18:34:00,
2013-05-14 14:39:00,57.4,24.6,30.09,NW,315,3.1,3.1,28,0.00,,---,0.00,VWS V13.01,2013-05-14 18:39:00,
2013-05-14 14:44:00,60.4,26.3,30.09,NNE,22,3.4,5.8,27,0.00,,---,0.00,VWS V13.01,2013-05-14 18:44:00,
2013-05-14 14:49:00,61.9,28.4,30.09,NNE,22,2.7,3.8,28,0.00,,---,0.00,VWS V13.01,2013-05-14 18:49:00,
2013-05-14 14:54:00,62.6,27.3,30.09,SW,225,1.1,5.8,26,0.00,,---,0.00,VWS V13.01,2013-05-14 18:54:00,
2013-05-14 15:00:00,64.8,29.1,30.09,South,180,3.4,3.4,26,0.00,,---,0.00,VWS V13.01,2013-05-14 19:00:00,
2013-05-14 15:05:00,66.7,30.8,30.09,NE,45,2.5,2.5,26,0.00,,---,0.00,VWS V13.01,2013-05-14 19:05:00,
2013-05-14 15:10:00,65.1,28.5,30.09,NNE,22,3.1,3.1,25,0.00,,---,0.00,VWS V13.01,2013-05-14 19:10:00,
2013-05-14 15:15:00,65.5,28.8,30.09,NW,315,2.9,3.1,25,0.00,,---,0.00,VWS V13.01,2013-05-14 19:15:00,
2013-05-14 15:20:00,66.0,29.2,30.09,NNE,22,2.9,2.9,25,0.00,,---,0.00,VWS V13.01,2013-05-14 19:20:00,
2013-05-14 15:25:00,63.5,27.1,30.09,NW,315,4.0,4.0,25,0.00,,---,0.00,VWS V13.01,2013-05-14 19:25:00,
2013-05-14 15:30:00,61.0,24.9,30.09,NE,45,2.9,3.1,25,0.00,,---,0.00,VWS V13.01,2013-05-14 19:30:00,
2013-05-14 15:35:00,60.1,25.1,30.09,North,0,6.5,6.5,26,0.00,,---,0.00,VWS V13.01,2013-05-14 19:35:00,
2013-05-14 15:40:00,60.3,25.3,30.09,NNW,338,0.0,0.0,26,0.00,,---,0.00,VWS V13.01,2013-05-14 19:40:00,
2013-05-14 15:45:00,59.7,24.8,30.09,NNE,22,2.7,3.4,26,0.00,,---,0.00,VWS V13.01,2013-05-14 19:45:00,
2013-05-14 15:50:00,59.5,24.6,30.09,NNW,338,3.6,5.8,26,0.00,,---,0.00,VWS V13.01,2013-05-14 19:50:00,
2013-05-14 15:56:00,59.4,25.4,30.09,ENE,68,2.5,2.7,27,0.00,,---,0.00,VWS V13.01,2013-05-14 19:56:00,
2013-05-14 16:01:00,58.8,24.9,30.09,NE,45,2.2,2.9,27,0.00,,---,0.00,VWS V13.01,2013-05-14 20:01:00,
2013-05-14 16:06:00,58.1,24.3,30.09,NE,45,2.7,4.3,27,0.00,,---,0.00,VWS V13.01,2013-05-14 20:06:00,
2013-05-14 16:11:00,58.5,24.6,30.09,North,0,2.5,3.8,27,0.00,,---,0.00,VWS V13.01,2013-05-14 20:11:00,
2013-05-14 16:16:00,59.2,25.2,30.12,NNE,22,3.8,3.8,27,0.00,,---,0.00,VWS V13.01,2013-05-14 20:16:00,
2013-05-14 16:21:00,58.8,24.9,30.12,North,0,3.6,3.6,27,0.00,,---,0.00,VWS V13.01,2013-05-14 20:21:00,
2013-05-14 16:26:00,58.5,24.6,30.12,NW,315,2.7,2.7,27,0.00,,---,0.00,VWS V13.01,2013-05-14 20:26:00,
2013-05-14 16:31:00,58.3,24.5,30.09,NE,45,2.5,2.5,27,0.00,,---,0.00,VWS V13.01,2013-05-14 20:31:00,
2013-05-14 16:36:00,58.1,24.3,30.09,SE,135,0.0,3.1,27,0.00,,---,0.00,VWS V13.01,2013-05-14 20:36:00,
2013-05-14 16:41:00,58.3,24.5,30.09,North,0,2.2,4.0,27,0.00,,---,0.00,VWS V13.01,2013-05-14 20:41:00,
2013-05-14 16:46:00,59.5,25.5,30.09,NNE,22,0.9,2.2,27,0.00,,---,0.00,VWS V13.01,2013-05-14 20:46:00,
2013-05-14 16:51:00,59.4,25.4,30.09,North,0,0.0,1.1,27,0.00,,---,0.00,VWS V13.01,2013-05-14 20:51:00,
2013-05-14 16:56:00,59.0,25.1,30.09,NNW,338,1.6,3.1,27,0.00,,---,0.00,VWS V13.01,2013-05-14 20:56:00,
2013-05-14 17:02:00,59.7,25.7,30.09,NNE,22,1.6,3.1,27,0.00,,---,0.00,VWS V13.01,2013-05-14 21:02:00,
2013-05-14 17:07:00,60.4,25.4,30.09,NNE,22,3.1,7.2,26,0.00,,---,0.00,VWS V13.01,2013-05-14 21:07:00,
2013-05-14 17:12:00,62.2,27.0,30.09,North,0,2.0,2.5,26,0.00,,---,0.00,VWS V13.01,2013-05-14 21:12:00,
2013-05-14 17:17:00,59.7,23.9,30.09,NW,315,3.8,3.8,25,0.00,,---,0.00,VWS V13.01,2013-05-14 21:17:00,
2013-05-14 17:22:00,59.7,24.8,30.09,North,0,3.1,3.6,26,0.00,,---,0.00,VWS V13.01,2013-05-14 21:22:00,
2013-05-14 17:27:00,58.6,23.9,30.09,East,90,2.0,2.9,26,0.00,,---,0.00,VWS V13.01,2013-05-14 21:27:00,
2013-05-14 17:32:00,59.4,24.5,30.09,North,0,2.0,2.2,26,0.00,,---,0.00,VWS V13.01,2013-05-14 21:32:00,
2013-05-14 17:37:00,59.7,24.8,30.09,NNE,22,3.4,4.0,26,0.00,,---,0.00,VWS V13.01,2013-05-14 21:37:00,
2013-05-14 17:42:00,58.5,23.7,30.09,ENE,68,5.4,5.4,26,0.00,,---,0.00,VWS V13.01,2013-05-14 21:42:00,
2013-05-14 17:48:00,60.6,24.6,30.09,South,180,2.9,4.3,25,0.00,,---,0.00,VWS V13.01,2013-05-14 21:48:00,
2013-05-14 17:53:00,62.2,26.0,30.09,NW,315,2.9,6.3,25,0.00,,---,0.00,VWS V13.01,2013-05-14 21:53:00,
2013-05-14 17:58:00,62.4,26.2,30.09,NW,315,3.4,3.8,25,0.00,,---,0.00,VWS V13.01,2013-05-14 21:58:00,
2013-05-14 18:03:00,61.3,25.2,30.09,NNE,22,0.9,0.9,25,0.00,,---,0.00,VWS V13.01,2013-05-14 22:03:00,
2013-05-14 18:08:00,60.6,24.6,30.09,NE,45,2.0,2.2,25,0.00,,---,0.00,VWS V13.01,2013-05-14 22:08:00,
2013-05-14 18:13:00,61.0,24.9,30.09,SE,135,2.5,2.5,25,0.00,,---,0.00,VWS V13.01,2013-05-14 22:13:00,
2013-05-14 18:18:00,61.0,24.9,30.09,North,0,4.3,4.3,25,0.00,,---,0.00,VWS V13.01,2013-05-14 22:18:00,
2013-05-14 18:23:00,60.3,24.3,30.09,NW,315,2.9,2.9,25,0.00,,---,0.00,VWS V13.01,2013-05-14 22:23:00,
2013-05-14 18:28:00,60.3,24.3,30.09,NW,315,2.0,3.4,25,0.00,,---,0.00,VWS V13.01,2013-05-14 22:28:00,
2013-05-14 18:34:00,60.4,24.5,30.09,NNE,22,4.3,4.7,25,0.00,,---,0.00,VWS V13.01,2013-05-14 22:34:00,
2013-05-14 18:39:00,59.4,23.6,30.09,West,270,3.1,3.4,25,0.00,,---,0.00,VWS V13.01,2013-05-14 22:39:00,
2013-05-14 18:44:00,59.5,23.7,30.09,ENE,68,2.2,2.2,25,0.00,,---,0.00,VWS V13.01,2013-05-14 22:44:00,
2013-05-14 18:49:00,60.3,24.3,30.09,NNE,22,1.6,2.5,25,0.00,,---,0.00,VWS V13.01,2013-05-14 22:49:00,
2013-05-14 18:54:00,60.4,25.4,30.09,ENE,68,3.8,3.8,26,0.00,,---,0.00,VWS V13.01,2013-05-14 22:54:00,
2013-05-14 18:59:00,59.5,23.7,30.09,NNE,22,2.5,2.5,25,0.00,,---,0.00,VWS V13.01,2013-05-14 22:59:00,
2013-05-14 19:04:00,59.0,23.2,30.09,NNE,22,2.5,2.5,25,0.00,,---,0.00,VWS V13.01,2013-05-14 23:04:00,
2013-05-14 19:09:00,58.5,23.7,30.09,NNE,22,2.5,2.5,26,0.00,,---,0.00,VWS V13.01,2013-05-14 23:09:00,
2013-05-14 19:14:00,56.7,22.2,30.09,NNE,22,2.5,2.5,26,0.00,,---,0.00,VWS V13.01,2013-05-14 23:14:00,
2013-05-14 19:20:00,55.9,21.6,30.09,NE,45,3.6,3.6,26,0.00,,---,0.00,VWS V13.01,2013-05-14 23:20:00,
2013-05-14 19:25:00,55.2,21.8,30.09,NE,45,3.6,3.6,27,0.00,,---,0.00,VWS V13.01,2013-05-14 23:25:00,
2013-05-14 19:30:00,54.7,21.4,30.12,NNE,22,1.1,1.1,27,0.00,,---,0.00,VWS V13.01,2013-05-14 23:30:00,
2013-05-14 19:35:00,54.3,21.1,30.12,North,0,2.0,2.0,27,0.00,,---,0.00,VWS V13.01,2013-05-14 23:35:00,
2013-05-14 19:40:00,54.0,20.8,30.12,North,0,2.0,2.0,27,0.00,,---,0.00,VWS V13.01,2013-05-14 23:40:00,
2013-05-14 19:45:00,53.4,21.1,30.12,SSE,158,0.0,2.0,28,0.00,,---,0.00,VWS V13.01,2013-05-14 23:45:00,
2013-05-14 19:50:00,52.9,20.7,30.12,SSE,158,0.0,0.0,28,0.00,,---,0.00,VWS V13.01,2013-05-14 23:50:00,
2013-05-14 19:55:00,52.0,19.9,30.12,SSE,158,0.0,0.0,28,0.00,,---,0.00,VWS V13.01,2013-05-14 23:55:00,
2013-05-14 20:00:00,51.4,20.3,30.12,SSE,158,0.0,0.0,29,0.00,,---,0.00,VWS V13.01,2013-05-15 00:00:00,
2013-05-14 20:06:00,50.7,20.4,30.12,SSE,158,0.0,0.0,30,0.00,,---,0.00,VWS V13.01,2013-05-15 00:06:00,
2013-05-14 20:11:00,50.2,20.0,30.12,SSE,158,0.0,0.0,30,0.00,,---,0.00,VWS V13.01,2013-05-15 00:11:00,
2013-05-14 20:16:00,49.6,21.0,30.12,SSE,158,0.0,0.0,32,0.00,,---,0.00,VWS V13.01,2013-05-15 00:16:00,
2013-05-14 20:21:00,49.1,21.3,30.12,SSE,158,0.0,0.0,33,0.00,,---,0.00,VWS V13.01,2013-05-15 00:21:00,
2013-05-14 20:26:00,48.6,21.5,30.12,SSE,158,0.0,0.0,34,0.00,,---,0.00,VWS V13.01,2013-05-15 00:26:00,
2013-05-14 20:31:00,48.0,23.0,30.12,SSE,158,0.0,0.0,37,0.00,,---,0.00,VWS V13.01,2013-05-15 00:31:00,
2013-05-14 20:36:00,47.5,22.5,30.12,SE,135,0.0,0.0,37,0.00,,---,0.00,VWS V13.01,2013-05-15 00:36:00,
2013-05-14 20:41:00,46.9,23.3,30.12,East,90,0.0,0.0,39,0.00,,---,0.00,VWS V13.01,2013-05-15 00:41:00,
2013-05-14 20:46:00,46.4,24.0,30.15,East,90,0.0,0.0,41,0.00,,---,0.00,VWS V13.01,2013-05-15 00:46:00,
2013-05-14 20:52:00,45.9,24.1,30.15,East,90,0.0,0.0,42,0.00,,---,0.00,VWS V13.01,2013-05-15 00:52:00,
2013-05-14 20:57:00,45.3,24.7,30.15,East,90,0.0,0.0,44,0.00,,---,0.00,VWS V13.01,2013-05-15 00:57:00,
2013-05-14 21:02:00,45.0,25.4,30.12,East,90,0.0,1.3,46,0.00,,---,0.00,VWS V13.01,2013-05-15 01:02:00,
2013-05-14 21:07:00,44.6,25.6,30.12,East,90,0.0,0.0,47,0.00,,---,0.00,VWS V13.01,2013-05-15 01:07:00,
2013-05-14 21:12:00,44.2,25.8,30.12,East,90,1.3,1.3,48,0.00,,---,0.00,VWS V13.01,2013-05-15 01:12:00,
2013-05-14 21:17:00,44.1,25.6,30.15,East,90,1.3,1.3,48,0.00,,---,0.00,VWS V13.01,2013-05-15 01:17:00,
2013-05-14 21:22:00,43.9,25.5,30.15,East,90,1.3,1.3,48,0.00,,---,0.00,VWS V13.01,2013-05-15 01:22:00,
2013-05-14 21:27:00,43.5,25.6,30.15,East,90,0.0,0.0,49,0.00,,---,0.00,VWS V13.01,2013-05-15 01:27:00,
2013-05-14 21:32:00,43.3,26.0,30.15,East,90,0.0,0.0,50,0.00,,---,0.00,VWS V13.01,2013-05-15 01:32:00,
2013-05-14 21:37:00,43.0,25.6,30.15,East,90,0.0,0.0,50,0.00,,---,0.00,VWS V13.01,2013-05-15 01:37:00,
2013-05-14 21:42:00,42.6,26.2,30.15,East,90,0.0,0.0,52,0.00,,---,0.00,VWS V13.01,2013-05-15 01:42:00,
2013-05-14 21:48:00,42.3,26.4,30.15,East,90,0.0,0.0,53,0.00,,---,0.00,VWS V13.01,2013-05-15 01:48:00,
2013-05-14 21:53:00,41.9,26.0,30.15,East,90,0.0,0.0,53,0.00,,---,0.00,VWS V13.01,2013-05-15 01:53:00,
2013-05-14 21:58:00,41.7,26.3,30.15,East,90,0.0,0.0,54,0.00,,---,0.00,VWS V13.01,2013-05-15 01:58:00,
2013-05-14 22:03:00,41.5,26.6,30.15,East,90,0.0,0.0,55,0.00,,---,0.00,VWS V13.01,2013-05-15 02:03:00,
2013-05-14 22:08:00,41.2,26.7,30.15,East,90,0.0,0.0,56,0.00,,---,0.00,VWS V13.01,2013-05-15 02:08:00,
2013-05-14 22:13:00,41.0,27.0,30.15,East,90,0.0,0.0,57,0.00,,---,0.00,VWS V13.01,2013-05-15 02:13:00,
2013-05-14 22:18:00,40.8,27.2,30.15,East,90,0.0,0.0,58,0.00,,---,0.00,VWS V13.01,2013-05-15 02:18:00,
2013-05-14 22:23:00,40.6,27.5,30.15,East,90,0.0,0.0,59,0.00,,---,0.00,VWS V13.01,2013-05-15 02:23:00,
2013-05-14 22:29:00,40.5,27.7,30.15,East,90,0.0,0.0,60,0.00,,---,0.00,VWS V13.01,2013-05-15 02:29:00,
2013-05-14 22:34:00,40.3,27.9,30.15,East,90,1.3,1.3,61,0.00,,---,0.00,VWS V13.01,2013-05-15 02:34:00,
2013-05-14 22:39:00,40.1,28.1,30.15,East,90,0.0,0.0,62,0.00,,---,0.00,VWS V13.01,2013-05-15 02:39:00,
2013-05-14 22:44:00,39.9,28.0,30.15,East,90,1.6,1.6,62,0.00,,---,0.00,VWS V13.01,2013-05-15 02:44:00,
2013-05-14 22:49:00,39.9,28.0,30.15,East,90,0.0,0.0,62,0.00,,---,0.00,VWS V13.01,2013-05-15 02:49:00,
2013-05-14 22:54:00,39.7,27.8,30.15,East,90,0.0,0.0,62,0.00,,---,0.00,VWS V13.01,2013-05-15 02:54:00,
2013-05-14 22:59:00,39.7,28.2,30.15,East,90,0.0,0.0,63,0.00,,---,0.00,VWS V13.01,2013-05-15 02:59:00,
2013-05-14 23:04:00,39.4,27.9,30.15,East,90,0.0,0.0,63,0.00,,---,0.00,VWS V13.01,2013-05-15 03:04:00,
2013-05-14 23:09:00,39.2,27.7,30.15,East,90,0.0,0.0,63,0.00,,---,0.00,VWS V13.01,2013-05-15 03:09:00,
2013-05-14 23:15:00,39.2,27.7,30.15,East,90,0.0,0.0,63,0.00,,---,0.00,VWS V13.01,2013-05-15 03:15:00,
2013-05-14 23:20:00,39.2,28.1,30.12,East,90,0.0,0.0,64,0.00,,---,0.00,VWS V13.01,2013-05-15 03:20:00,
2013-05-14 23:25:00,39.2,28.1,30.12,East,90,0.0,0.0,64,0.00,,---,0.00,VWS V13.01,2013-05-15 03:25:00,
2013-05-14 23:30:00,39.0,28.3,30.12,East,90,0.0,0.0,65,0.00,,---,0.00,VWS V13.01,2013-05-15 03:30:00,
2013-05-14 23:35:00,38.8,28.1,30.15,East,90,0.0,0.0,65,0.00,,---,0.00,VWS V13.01,2013-05-15 03:35:00,
2013-05-14 23:40:00,38.7,27.9,30.15,East,90,0.0,0.0,65,0.00,,---,0.00,VWS V13.01,2013-05-15 03:40:00,
2013-05-14 23:45:00,38.7,28.7,30.15,East,90,0.0,0.0,67,0.00,,---,0.00,VWS V13.01,2013-05-15 03:45:00,
2013-05-14 23:50:00,38.5,28.5,30.15,East,90,0.0,0.0,67,0.00,,---,0.00,VWS V13.01,2013-05-15 03:50:00,
2013-05-14 23:55:00,38.7,28.3,30.15,East,90,0.0,0.0,66,0.00,,---,0.00,VWS V13.01,2013-05-15 03:55:00,